TimeCST,TemperatureF,Dew PointF,Humidity,Sea Level PressureIn,VisibilityMPH,Wind Direction,Wind SpeedMPH,Gust SpeedMPH,PrecipitationIn,Events,Conditions,WindDirDegrees,DateUTC
12:51 AM,64.9,62.1,90,29.98,5.0,SSE,9.2,-,N/A,,Overcast,150,2012-02-03 06:51:00
1:51 AM,66.0,62.1,87,29.97,5.0,SE,11.5,-,N/A,,Overcast,140,2012-02-03 07:51:00
2:40 AM,64.4,62.6,94,29.96,5.0,SSE,12.7,-,N/A,,Overcast,150,2012-02-03 08:40:00
2:51 AM,64.9,62.1,90,29.94,5.0,SE,11.5,-,N/A,,Overcast,140,2012-02-03 08:51:00
2:58 AM,64.4,62.6,94,29.95,5.0,SE,11.5,-,N/A,,Overcast,140,2012-02-03 08:58:00
3:51 AM,64.9,62.1,90,29.92,5.0,SSE,11.5,-,N/A,,Overcast,150,2012-02-03 09:51:00
4:43 AM,64.4,62.6,94,29.93,6.0,SSE,11.5,-,N/A,,Overcast,150,2012-02-03 10:43:00
4:51 AM,64.9,62.1,90,29.91,6.0,SE,12.7,-,N/A,,Overcast,140,2012-02-03 10:51:00
5:19 AM,66.2,62.6,88,29.93,6.0,SE,11.5,-,N/A,,Overcast,140,2012-02-03 11:19:00
5:51 AM,66.0,62.1,87,29.92,6.0,SSE,15.0,-,N/A,,Overcast,150,2012-02-03 11:51:00
6:48 AM,66.2,62.6,88,29.94,6.0,SE,12.7,-,N/A,,Overcast,130,2012-02-03 12:48:00
6:51 AM,66.2,62.6,88,29.94,6.0,SE,11.5,-,N/A,,Overcast,130,2012-02-03 12:51:00
7:04 AM,66.2,62.6,88,29.94,4.0,SE,12.7,-,0.00,Rain,Light Rain,130,2012-02-03 13:04:00
7:17 AM,64.4,62.6,94,29.94,4.0,ESE,12.7,-,0.00,Rain,Light Rain,120,2012-02-03 13:17:00
7:44 AM,66.2,62.6,88,29.95,2.5,SE,13.8,-,0.00,,Overcast,140,2012-02-03 13:44:00
7:51 AM,66.0,63.0,90,29.94,3.0,SE,15.0,-,0.00,,Overcast,140,2012-02-03 13:51:00
8:51 AM,66.9,63.0,87,29.96,6.0,SSE,12.7,-,N/A,,Overcast,150,2012-02-03 14:51:00
9:51 AM,68.0,64.0,87,29.97,3.0,SSE,13.8,-,0.00,Rain,Light Rain,150,2012-02-03 15:51:00
10:51 AM,69.1,64.0,84,29.97,7.0,SSE,12.7,-,0.00,,Overcast,150,2012-02-03 16:51:00
10:58 AM,69.8,64.4,83,29.98,7.0,SSE,10.4,-,N/A,,Overcast,160,2012-02-03 16:58:00
11:51 AM,73.0,64.0,73,29.94,10.0,South,16.1,-,N/A,,Overcast,170,2012-02-03 17:51:00
11:58 AM,71.6,64.4,78,29.96,10.0,South,13.8,-,N/A,,Mostly Cloudy,180,2012-02-03 17:58:00
12:51 PM,71.1,63.0,75,29.94,10.0,South,11.5,-,N/A,,Overcast,190,2012-02-03 18:51:00
1:51 PM,73.9,64.0,71,29.90,10.0,South,13.8,-,0.00,,Overcast,180,2012-02-03 19:51:00
2:51 PM,73.9,64.0,71,29.89,10.0,South,12.7,-,N/A,,Overcast,190,2012-02-03 20:51:00
3:51 PM,73.9,62.1,66,29.88,10.0,South,13.8,-,N/A,,Overcast,190,2012-02-03 21:51:00
4:51 PM,71.6,60.8,69,29.90,10.0,South,9.2,-,N/A,,Overcast,190,2012-02-03 22:51:00
5:51 PM,70.0,61.0,73,29.89,10.0,South,8.1,-,N/A,,Overcast,190,2012-02-03 23:51:00
6:51 PM,70.0,61.0,73,29.91,10.0,South,5.8,-,N/A,,Overcast,170,2012-02-04 00:51:00
7:51 PM,70.0,62.1,76,29.92,10.0,SSE,9.2,-,N/A,,Overcast,150,2012-02-04 01:51:00
8:51 PM,68.0,64.0,87,29.92,10.0,South,6.9,-,N/A,,Mostly Cloudy,170,2012-02-04 02:51:00
9:51 PM,68.0,64.0,87,29.95,10.0,South,8.1,-,N/A,,Overcast,170,2012-02-04 03:51:00
10:51 PM,66.0,60.1,81,29.97,10.0,West,9.2,-,N/A,,Overcast,260,2012-02-04 04:51:00
11:03 PM,64.4,57.2,77,30.01,10.0,NW,19.6,35.7,N/A,Thunderstorm,Overcast,320,2012-02-04 05:03:00
11:12 PM,62.6,55.4,77,30.01,10.0,NNW,18.4,-,N/A,Thunderstorm,Overcast,340,2012-02-04 05:12:00
11:19 PM,62.6,55.4,77,30.03,10.0,NNW,18.4,26.5,N/A,,Overcast,330,2012-02-04 05:19:00
11:51 PM,59.0,54.0,83,30.01,8.0,NNW,16.1,-,0.02,Rain,Light Rain,340,2012-02-04 05:51:00